[[{"header":{"parameterUnit":"m.s-1","parameterCategory":2,"la1":30.2991,"la2":30.254,"lo1":-89.0895,"lo2":-89.0444,"dy":0.0017,"dx":0.0017,"nx":28,"ny":28,"refTime":"2023-09-21T03:00:00:Z","depth":"0","parameterNumber":2,"parameterNumberName":"U-component_of_CURRENTS"},"data":[0,0,0,0,0,0,0,0,0,0,0,0,0,0,0,0,0,0,0,0,0,0,0,0,0,0,0,0,0,0,0,0,0,0,0,0,0,0,0,0,0,0,0,0,0,0,0,0,0,0,0,0,0,0,0,0,0,0,-0.2853,-0.2853,0,-0.2868,-0.2868,-0.2868,-0.2837,-0.2836,-0.2836,-0.2835,-0.2777,-0.2777,-0.2776,0,0,0,0,0,0,0,0,0,0,0,0,0,-0.2772,-0.2773,-0.2853,-0.2853,-0.2854,-0.2868,-0.2868,-0.2868,-0.2837,-0.2836,-0.2835,-0.2835,-0.2778,-0.2777,-0.2776,0,0,0,0,0,0,0,0,0,0,0,0,0,-0.2795,-0.2774,-0.2853,-0.2844,-0.2843,-0.2868,-0.2868,-0.2868,-0.2837,-0.2836,-0.2835,-0.2834,-0.2778,-0.2777,-0.2775,-0.2785,0,0,-0.2771,-0.277,0,0,0,0,0,0,0,0,-0.2794,-0.2797,-0.2844,-0.2844,-0.2844,-0.2853,-0.2819,-0.2838,-0.2837,-0.2835,-0.2835,-0.2834,-0.28,-0.2796,-0.2796,-0.2782,-0.278,-0.2771,-0.277,-0.2769,-0.2769,0,0,0,0,0,0,0,-0.2792,-0.2797,-0.2855,-0.2845,-0.2845,-0.283,-0.2832,-0.2822,-0.2818,-0.2835,-0.2834,-0.2843,-0.2798,-0.2798,-0.2795,-0.2779,-0.2771,-0.277,-0.2769,-0.2768,-0.2793,-0.2795,0,0,0,0,0,0,-0.2802,-0.2795,-0.2854,-0.2855,-0.2821,-0.2833,-0.2835,-0.2848,-0.2819,-0.2816,-0.2844,-0.2841,-0.2801,-0.2796,-0.2792,-0.2817,-0.2769,-0.2768,-0.2767,-0.2792,-0.2794,-0.2795,0,0,0,0,0,0,-0.28,-0.2807,-0.2854,-0.2829,-0.2834,-0.2836,-0.285,-0.2849,-0.2847,-0.2827,-0.2821,-0.2844,-0.28,-0.2794,-0.2794,-0.2814,-0.2767,-0.2766,-0.279,-0.2792,-0.2794,-0.2856,0,0,0,0,0,0,-0.2798,-0.2806,-0.2814,-0.283,-0.2836,-0.2879,-0.2852,-0.285,-0.2856,-0.2853,-0.2826,-0.2819,-0.2799,-0.2797,-0.2793,-0.2811,-0.2765,-0.2788,-0.2791,-0.2794,-0.2852,-0.2861,-0.2867,0,0,0,0,0,-0.2795,-0.2814,-0.2814,-0.2821,-0.2848,-0.2881,-0.2883,-0.2877,-0.2857,-0.2868,-0.285,-0.282,-0.2812,-0.2797,-0.2792,-0.281,-0.2787,-0.279,-0.2793,-0.2849,-0.2859,-0.2867,0,0,0,0,0,0,-0.278,-0.2814,-0.2814,-0.2841,-0.2864,-0.2877,-0.2885,-0.2882,-0.2876,-0.2866,-0.2836,-0.283,-0.2839,-0.282,-0.2804,-0.2828,-0.2796,-0.2799,-0.284,-0.2849,-0.2856,-0.2854,-0.2764,0,0,0,0,0,-0.2783,-0.2803,-0.2836,-0.2854,-0.2869,-0.2876,-0.2885,-0.2887,-0.2888,-0.2884,-0.2867,-0.2852,-0.2851,-0.2846,-0.284,-0.285,-0.2826,-0.2861,-0.2868,-0.2875,-0.2871,-0.2859,-0.2864,-0.2806,-0.2806,-0.2806,0,0,-0.2778,-0.2802,-0.281,-0.2852,-0.2863,-0.2897,-0.2877,-0.29,-0.2921,-0.2879,-0.2889,-0.2876,-0.2861,-0.2875,-0.2878,-0.286,-0.2882,-0.2879,-0.2885,-0.2877,-0.2863,-0.2868,-0.2873,-0.2809,-0.2808,-0.2808,0,0,-0.2789,-0.2805,-0.2829,-0.286,-0.2895,-0.2907,-0.2917,-0.2938,-0.2939,-0.2957,-0.2934,-0.2932,-0.2927,-0.2923,-0.2919,-0.2965,-0.2923,-0.2967,-0.2999,-0.2987,-0.2991,-0.2995,-0.2982,-0.2983,-0.297,-0.297,-0.297,0,-0.2779,-0.2818,-0.284,-0.2882,-0.2903,-0.2916,-0.2948,-0.2966,-0.2981,-0.2984,-0.2968,-0.2967,-0.295,-0.2969,-0.2986,-0.298,-0.2965,-0.2964,-0.2995,-0.2998,-0.3,-0.2986,-0.2987,-0.2973,-0.2973,-0.2972,-0.2972,0,-0.2819,-0.2849,-0.2868,-0.2921,-0.2951,-0.298,-0.3018,-0.3037,-0.3034,-0.3043,-0.3056,-0.304,-0.3033,-0.304,-0.3024,-0.3042,-0.3024,-0.3006,-0.2968,-0.3009,-0.2993,-0.2992,-0.2978,-0.2977,-0.2976,-0.2975,0,0,-0.2781,-0.2874,-0.2877,-0.2906,-0.2971,-0.2996,-0.3044,-0.3081,-0.3102,-0.3112,-0.3127,-0.3131,-0.3111,-0.3106,-0.3091,-0.3084,-0.309,-0.3054,-0.3052,-0.3034,-0.3063,-0.301,-0.3004,-0.3076,-0.3076,-0.3076,-0.3049,0,-0.2793,-0.2864,-0.2912,-0.2968,-0.3001,-0.3043,-0.3089,-0.3127,-0.3143,-0.3166,-0.3159,-0.3165,-0.3143,-0.3135,-0.313,-0.3101,-0.3091,-0.3099,-0.3032,-0.303,-0.2971,-0.3002,-0.2924,-0.2889,-0.3048,-0.3048,-0.3048,0,-0.2801,-0.2851,-0.2906,-0.2986,-0.3005,-0.3043,-0.3098,-0.3142,-0.3191,-0.3203,-0.3212,-0.3207,-0.3209,-0.3176,-0.3147,-0.3153,-0.311,-0.3085,-0.3083,-0.3006,-0.2975,-0.2873,-0.2882,-0.2867,-0.3047,-0.3047,-0.3047,0,-0.2742,-0.2835,-0.2871,-0.2902,-0.3004,-0.3029,-0.3072,-0.3136,-0.3172,-0.3213,-0.3232,-0.324,-0.323,-0.3198,-0.3144,-0.3146,-0.31,-0.3093,-0.3006,-0.3002,-0.2907,-0.2894,-0.2883,-0.3059,-0.3059,-0.3059,-0.3059,0,-0.2724,-0.2752,-0.2845,-0.287,-0.2917,-0.2994,-0.304,-0.3092,-0.3158,-0.3188,-0.3232,-0.3243,-0.3232,-0.3207,-0.3158,-0.3079,-0.3106,-0.3012,-0.299,-0.2929,-0.2918,-0.2876,-0.2877,-0.3058,-0.3058,-0.3058,-0.3059,0,-0.265,-0.2715,-0.2761,-0.2859,-0.2889,-0.2915,-0.3017,-0.3044,-0.3127,-0.3164,-0.3175,-0.3239,-0.3212,-0.319,-0.3133,-0.3084,-0.2968,-0.2976,-0.2905,-0.2876,-0.2788,-0.2795,-0.2721,-0.2643,-0.2892,-0.2891,-0.289,0,-0.2618,-0.2632,-0.2727,-0.2742,-0.2782,-0.2841,-0.2877,-0.2997,-0.3026,-0.3144,-0.3141,-0.3169,-0.3154,-0.3085,-0.3007,-0.2922,-0.2892,-0.28,-0.2788,-0.2773,-0.2766,-0.2758,-0.2698,-0.2694,-0.2692,-0.2689,-0.2688,0,-0.2536,-0.2563,-0.2597,-0.2638,-0.2672,-0.2726,-0.2784,-0.2823,-0.2946,-0.2999,-0.3048,-0.3061,-0.3034,-0.2936,-0.2848,-0.2779,-0.2742,-0.2751,-0.275,-0.2622,-0.2596,-0.2514,-0.2733,-0.2667,-0.2669,-0.2671,-0.2672,-0.2673,-0.2442,-0.2442,-0.2472,-0.25,-0.2542,-0.2567,-0.2562,-0.2647,-0.2701,-0.2752,-0.2867,-0.2871,-0.2875,-0.2752,-0.2684,-0.2569,-0.258,-0.251,-0.2524,-0.2522,-0.2431,-0.2606,-0.2508,-0.2509,-0.251,-0.2511,-0.2512,0,-0.2305,-0.2313,-0.2327,-0.2351,-0.2332,-0.2409,-0.2455,-0.2425,-0.2434,-0.2553,-0.2588,-0.2657,-0.2577,-0.2577,-0.2488,-0.2384,-0.2315,-0.2325,-0.2308,-0.2258,-0.2423,-0.2399,-0.2253,-0.2253,-0.2254,-0.2254,-0.2254,-0.2254,-0.2225,-0.2184,-0.22,-0.2122,-0.2133,-0.2058,-0.2049,-0.2046,-0.2097,-0.2145,-0.2238,-0.2381,-0.2391,-0.2555,-0.2426,-0.231,-0.223,-0.216,-0.2154,-0.2305,-0.2324,-0.2343,-0.2321,-0.2162,-0.2161,-0.1931,-0.1929,-0.1928]},{"header":{"parameterUnit":"m.s-1","parameterCategory":2,"la1":30.2991,"la2":30.254,"lo1":-89.0895,"lo2":-89.0444,"dy":0.0017,"dx":0.0017,"nx":28,"ny":28,"refTime":"2023-09-21T03:00:00:Z","depth":"0","parameterNumber":3,"parameterNumberName":"V-component_of_CURRENTS"},"data":[0,0,0,0,0,0,0,0,0,0,0,0,0,0,0,0,0,0,0,0,0,0,0,0,0,0,0,0,0,0,0,0,0,0,0,0,0,0,0,0,0,0,0,0,0,0,0,0,0,0,0,0,0,0,0,0,0,0,-0.0307,-0.0306,0,-0.0211,-0.021,-0.0209,-0.0147,-0.0147,-0.0147,-0.0147,-0.002,-0.0017,-0.0014,0,0,0,0,0,0,0,0,0,0,0,0,0,-0.0373,-0.0373,-0.0307,-0.0306,-0.0305,-0.0211,-0.021,-0.0208,-0.0147,-0.0147,-0.0147,-0.0146,-0.0021,-0.0017,-0.0014,0,0,0,0,0,0,0,0,0,0,0,0,0,-0.0317,-0.0373,-0.0307,-0.0264,-0.026,-0.0212,-0.021,-0.0208,-0.0147,-0.0147,-0.0147,-0.0146,-0.0022,-0.0018,-0.0013,0.0009,0,0,0.0001,0.0003,0,0,0,0,0,0,0,0,-0.032,-0.0314,-0.0272,-0.0267,-0.0262,-0.0192,-0.0187,-0.0134,-0.0147,-0.0189,-0.0147,-0.0146,-0.0076,-0.0067,-0.0048,0.0015,0.002,0.0002,0.0005,0.0007,0.0008,0,0,0,0,0,0,0,-0.0324,-0.0318,-0.0268,-0.0271,-0.0265,-0.0228,-0.022,-0.0176,-0.0134,-0.0185,-0.0181,-0.0172,-0.0073,-0.0053,-0.0044,0.0022,0.0002,0.0006,0.0009,0.0011,0.0115,0.0115,0,0,0,0,0,0,-0.0342,-0.0322,-0.0271,-0.0265,-0.0292,-0.0227,-0.0218,-0.0214,-0.0135,-0.0123,-0.0173,-0.017,-0.0061,-0.005,-0.004,-0.0007,0.0007,0.0011,0.0014,0.0115,0.0115,0.0115,0,0,0,0,0,0,-0.0344,-0.0339,-0.0275,-0.0292,-0.0281,-0.0227,-0.0222,-0.0212,-0.0192,-0.0126,-0.0113,-0.0164,-0.006,-0.0046,-0.0001,-0.0002,0.0013,0.0018,0.0115,0.0115,0.0115,0.0056,0,0,0,0,0,0,-0.0347,-0.034,-0.0345,-0.0293,-0.0281,-0.0256,-0.0222,-0.021,-0.0188,-0.0184,-0.0114,-0.0102,-0.0059,-0.0009,0.0003,0.0005,0.0021,0.0115,0.0115,0.0115,0.0058,0.0054,0.0051,0,0,0,0,0,-0.0349,-0.0362,-0.0346,-0.034,-0.0289,-0.0257,-0.0248,-0.0206,-0.0189,-0.0186,-0.0134,-0.0104,-0.0001,-0.0005,0.0009,0.0012,0.0115,0.0115,0.0115,0.006,0.0055,0.0051,0,0,0,0,0,0,-0.0394,-0.0355,-0.0337,-0.0337,-0.0304,-0.0248,-0.0243,-0.0212,-0.0169,-0.0165,-0.01,-0.0084,-0.0048,-0.001,-0.0016,0.0041,0.0061,0.0063,0.0014,0.001,0.0006,-0.0007,0.0025,0,0,0,0,0,-0.0408,-0.0407,-0.036,-0.0361,-0.0349,-0.0297,-0.0279,-0.0251,-0.0205,-0.0186,-0.0136,-0.0083,-0.0037,-0.0009,0.0034,0.0069,0.0112,0.0078,0.0074,0.0071,0.0069,0.0135,0.0137,0.0115,0.0115,0.0115,0,0,-0.0426,-0.0405,-0.0404,-0.0371,-0.0342,-0.0334,-0.0285,-0.0266,-0.025,-0.0179,-0.0146,-0.0097,-0.0032,0.0006,0.0026,0.0038,0.01,0.0071,0.0067,0.0068,0.0135,0.0138,0.014,0.0115,0.0115,0.0115,0,0,-0.0469,-0.0444,-0.046,-0.0433,-0.0398,-0.0366,-0.0365,-0.0311,-0.0279,-0.024,-0.0185,-0.0135,-0.0069,-0.0016,0.0018,0.0019,0.0074,0.0028,0.0005,0.0069,0.0071,0.0074,0.0128,0.0136,0.003,0.003,0.003,0,-0.0495,-0.0503,-0.0459,-0.0462,-0.0446,-0.0387,-0.0395,-0.0353,-0.029,-0.0258,-0.0242,-0.0128,-0.0077,-0.0013,-0.0014,0.0011,0.0052,0.0016,0.0064,0.0067,0.0071,0.0126,0.0136,0.0027,0.0028,0.0028,0.0028,0,-0.0544,-0.0546,-0.0553,-0.0538,-0.0514,-0.0511,-0.045,-0.042,-0.0377,-0.0326,-0.0256,-0.0178,-0.0109,-0.0085,-0.0048,0.0005,0.0026,0.0047,0.0073,0.007,0.0128,0.0139,0.0023,0.0024,0.0025,0.0026,0,0,-0.0611,-0.0595,-0.0595,-0.06,-0.0552,-0.0541,-0.0508,-0.0458,-0.0432,-0.0358,-0.0311,-0.0224,-0.0173,-0.0131,-0.007,-0.0011,0.0049,0.0022,0.0027,0.0071,0.0184,0.0236,0.0253,0.0077,0.0079,0.008,0.0213,0,-0.0664,-0.07,-0.0663,-0.0683,-0.0695,-0.062,-0.0596,-0.0535,-0.0468,-0.0406,-0.0301,-0.0242,-0.0191,-0.0157,-0.009,0.0019,0.0076,0.0011,0.0185,0.019,0.0233,0.0268,0.0317,0.0443,0.0224,0.0226,0.0227,0,-0.072,-0.0737,-0.0774,-0.0756,-0.0752,-0.0747,-0.0687,-0.0655,-0.0544,-0.0486,-0.0394,-0.0308,-0.0198,-0.0166,0.002,-0.0024,0.0067,0.0149,0.0156,0.0233,0.0263,0.0413,0.0472,0.0635,0.0245,0.0243,0.0242,0,-0.0795,-0.0807,-0.0843,-0.0836,-0.0809,-0.0798,-0.0777,-0.0685,-0.0649,-0.0534,-0.0489,-0.0345,-0.0265,-0.0129,0.0051,0.0034,0.0255,0.0255,0.0388,0.0393,0.0485,0.0495,0.0721,0.0372,0.0372,0.0372,0.0371,0,-0.0863,-0.0887,-0.0885,-0.0902,-0.0938,-0.0878,-0.0874,-0.0822,-0.0732,-0.0689,-0.0544,-0.0464,-0.0253,-0.0092,0.0048,0.0269,0.026,0.0397,0.0438,0.0465,0.0472,0.0657,0.071,0.0377,0.0376,0.0375,0.0374,0,-0.0935,-0.0934,-0.0978,-0.0975,-0.0978,-0.1001,-0.0963,-0.0947,-0.0851,-0.0786,-0.0752,-0.0541,-0.0318,-0.0098,0.015,0.0274,0.0579,0.054,0.0556,0.0597,0.0854,0.0899,0.1147,0.124,0.0704,0.0706,0.0708,0,-0.0976,-0.1009,-0.1048,-0.1082,-0.1086,-0.1101,-0.1107,-0.1028,-0.0994,-0.0826,-0.0795,-0.056,-0.0371,0.003,0.0307,0.059,0.0696,0.0775,0.0751,0.0896,0.0977,0.0998,0.1059,0.085,0.0853,0.0856,0.0858,0,-0.1052,-0.1064,-0.1104,-0.1182,-0.1213,-0.1238,-0.1228,-0.1217,-0.1101,-0.1011,-0.0837,-0.067,-0.0249,0.0137,0.0514,0.0671,0.0904,0.0829,0.0993,0.1127,0.1155,0.1254,0.0723,0.0878,0.0876,0.0875,0.0874,0.0873,-0.11,-0.1156,-0.121,-0.128,-0.1322,-0.135,-0.1358,-0.131,-0.1247,-0.1081,-0.0889,-0.0599,-0.0018,0.0546,0.074,0.116,0.1089,0.1262,0.131,0.1321,0.1408,0.0915,0.1104,0.1104,0.1103,0.1102,0.1102,0,-0.1158,-0.1219,-0.1297,-0.1375,-0.1431,-0.1426,-0.1418,-0.1386,-0.1308,-0.1104,-0.0892,-0.0241,0.0318,0.0819,0.1434,0.1636,0.1665,0.1726,0.1781,0.1822,0.1415,0.1419,0.1671,0.1671,0.1671,0.1671,0.167,0.167,-0.119,-0.1283,-0.133,-0.1445,-0.1493,-0.1532,-0.1524,-0.1451,-0.13,-0.0949,-0.0588,-0.0267,0.049,0.1528,0.207,0.2093,0.2253,0.2228,0.2311,0.2039,0.1999,0.1961,0.1981,0.2346,0.2347,0.2709,0.2713,0.2716]}],[{"header":{"parameterUnit":"m.s-1","parameterCategory":2,"la1":30.2991,"la2":30.254,"lo1":-89.0895,"lo2":-89.0444,"dy":0.0017,"dx":0.0017,"nx":28,"ny":28,"refTime":"2023-09-21T03:00:00:Z","depth":"2","parameterNumber":2,"parameterNumberName":"U-component_of_CURRENTS"},"data":[0,0,0,0,0,0,0,0,0,0,0,0,0,0,0,0,0,0,0,0,0,0,0,0,0,0,0,0,0,0,0,0,0,0,0,0,0,0,0,0,0,0,0,0,0,0,0,0,0,0,0,0,0,0,0,0,0,0,-0.2652,-0.2653,0,-0.2668,-0.2668,-0.2668,-0.2643,-0.2643,-0.2642,-0.2642,-0.2594,-0.2593,-0.2592,0,0,0,0,0,0,0,0,0,0,0,0,0,-0.2575,-0.2576,-0.2652,-0.2653,-0.2653,-0.2668,-0.2668,-0.2668,-0.2643,-0.2643,-0.2642,-0.2642,-0.2594,-0.2593,-0.2592,0,0,0,0,0,0,0,0,0,0,0,0,0,-0.2597,-0.2577,-0.2652,-0.2646,-0.2646,-0.2668,-0.2668,-0.2668,-0.2643,-0.2643,-0.2642,-0.2641,-0.2595,-0.2593,-0.2592,-0.2598,0,0,-0.2588,-0.2588,0,0,0,0,0,0,0,0,-0.2596,-0.26,-0.2646,-0.2646,-0.2646,-0.2657,-0.2624,-0.2643,-0.2644,-0.264,-0.2642,-0.2641,-0.2612,-0.261,-0.2609,-0.2596,-0.2594,-0.2588,-0.2587,-0.2587,-0.2586,0,0,0,0,0,0,0,-0.2595,-0.2599,-0.2654,-0.2647,-0.2647,-0.2634,-0.2636,-0.2627,-0.2625,-0.264,-0.2639,-0.2648,-0.2611,-0.261,-0.2608,-0.2593,-0.2588,-0.2587,-0.2586,-0.2586,-0.2615,-0.2616,0,0,0,0,0,0,-0.2604,-0.2598,-0.2654,-0.2655,-0.2624,-0.2637,-0.2639,-0.2651,-0.2627,-0.2624,-0.2649,-0.2647,-0.2613,-0.2609,-0.2606,-0.2635,-0.2587,-0.2586,-0.2585,-0.2613,-0.2615,-0.2617,0,0,0,0,0,0,-0.2602,-0.2609,-0.2653,-0.263,-0.2635,-0.2639,-0.2652,-0.2651,-0.2654,-0.2635,-0.263,-0.2653,-0.2612,-0.2607,-0.2611,-0.2632,-0.2585,-0.2584,-0.2612,-0.2614,-0.2616,-0.2679,0,0,0,0,0,0,-0.26,-0.2608,-0.2617,-0.2631,-0.2637,-0.2679,-0.2653,-0.2652,-0.2662,-0.266,-0.2637,-0.2631,-0.2611,-0.2613,-0.261,-0.263,-0.2583,-0.261,-0.2613,-0.2615,-0.2675,-0.2684,-0.2691,0,0,0,0,0,-0.2597,-0.2616,-0.2617,-0.2624,-0.265,-0.2681,-0.2683,-0.2679,-0.2663,-0.2675,-0.266,-0.2632,-0.2629,-0.2613,-0.2609,-0.2629,-0.2608,-0.2612,-0.2615,-0.2672,-0.2682,-0.269,0,0,0,0,0,0,-0.2585,-0.2616,-0.2617,-0.2644,-0.2667,-0.2678,-0.2687,-0.2686,-0.2683,-0.2676,-0.2648,-0.2643,-0.2655,-0.2638,-0.2621,-0.2648,-0.2616,-0.2618,-0.266,-0.2669,-0.2677,-0.2674,-0.2582,0,0,0,0,0,-0.2589,-0.2608,-0.2638,-0.2657,-0.2671,-0.2679,-0.2689,-0.2692,-0.2695,-0.2693,-0.2679,-0.2667,-0.2667,-0.2664,-0.2659,-0.2671,-0.2647,-0.2683,-0.2691,-0.2698,-0.2694,-0.2683,-0.2689,-0.2628,-0.2628,-0.2628,0,0,-0.2586,-0.2608,-0.2616,-0.2656,-0.2667,-0.27,-0.2682,-0.2706,-0.2728,-0.2688,-0.2703,-0.2691,-0.2677,-0.2694,-0.2698,-0.268,-0.2706,-0.2702,-0.2707,-0.27,-0.2687,-0.2692,-0.2697,-0.2631,-0.263,-0.263,0,0,-0.2598,-0.2614,-0.2638,-0.2667,-0.2702,-0.2713,-0.2724,-0.2745,-0.2749,-0.2769,-0.2748,-0.2749,-0.2747,-0.2743,-0.274,-0.2787,-0.2747,-0.2791,-0.2823,-0.2813,-0.2817,-0.2821,-0.281,-0.2812,-0.2793,-0.2794,-0.2794,0,-0.2591,-0.2628,-0.2649,-0.2688,-0.2709,-0.2723,-0.2754,-0.2773,-0.279,-0.2795,-0.2782,-0.2785,-0.2771,-0.279,-0.2808,-0.2802,-0.2789,-0.2788,-0.2821,-0.2824,-0.2827,-0.2814,-0.2815,-0.2797,-0.2797,-0.2796,-0.2796,0,-0.263,-0.2659,-0.2678,-0.2728,-0.2758,-0.2786,-0.2823,-0.2844,-0.2845,-0.2855,-0.2872,-0.2859,-0.2855,-0.2862,-0.2847,-0.2867,-0.285,-0.2832,-0.2794,-0.2836,-0.2821,-0.2821,-0.2802,-0.2801,-0.28,-0.2799,0,0,-0.2597,-0.2684,-0.2688,-0.2715,-0.2778,-0.2803,-0.2851,-0.2888,-0.2911,-0.2925,-0.2942,-0.2949,-0.2933,-0.2929,-0.2915,-0.291,-0.2919,-0.2882,-0.288,-0.2864,-0.2897,-0.2843,-0.2837,-0.2906,-0.2906,-0.2906,-0.2883,0,-0.261,-0.2677,-0.2722,-0.2777,-0.2808,-0.285,-0.2895,-0.2934,-0.2953,-0.2978,-0.2974,-0.2984,-0.2964,-0.2959,-0.2956,-0.2929,-0.2921,-0.2927,-0.2864,-0.2862,-0.2802,-0.2836,-0.2621,-0.2578,-0.2883,-0.2883,-0.2883,0,-0.2619,-0.2665,-0.272,-0.2795,-0.2814,-0.2852,-0.2908,-0.2952,-0.3002,-0.3017,-0.303,-0.3027,-0.3032,-0.3001,-0.2976,-0.2982,-0.2943,-0.2919,-0.2917,-0.2839,-0.2807,-0.2584,-0.2566,-0.2882,-0.2882,-0.2882,-0.2882,0,-0.2564,-0.2653,-0.2688,-0.2718,-0.2816,-0.2842,-0.2885,-0.2949,-0.2984,-0.303,-0.3051,-0.3062,-0.3056,-0.3026,-0.2977,-0.2978,-0.2937,-0.2928,-0.2844,-0.284,-0.2629,-0.2606,-0.2899,-0.2899,-0.2899,-0.2899,-0.2899,0,-0.2548,-0.2576,-0.2665,-0.2689,-0.2736,-0.281,-0.2858,-0.291,-0.2977,-0.3006,-0.3053,-0.3065,-0.3059,-0.3038,-0.2992,-0.2916,-0.2945,-0.285,-0.283,-0.2648,-0.2628,-0.2866,-0.2863,-0.2898,-0.2898,-0.2898,-0.2899,0,-0.2479,-0.2542,-0.2587,-0.2682,-0.2711,-0.2738,-0.2838,-0.2865,-0.2949,-0.2986,-0.3,-0.3063,-0.304,-0.3022,-0.297,-0.2922,-0.2862,-0.2821,-0.2613,-0.2569,-0.2772,-0.2772,-0.2741,-0.2738,-0.2737,-0.2735,-0.2734,0,-0.245,-0.2464,-0.2556,-0.2571,-0.2611,-0.267,-0.2705,-0.2822,-0.2849,-0.2966,-0.2962,-0.2994,-0.2977,-0.2914,-0.2821,-0.2737,-0.2801,-0.2505,-0.247,-0.2772,-0.2756,-0.2759,-0.2762,-0.2217,-0.2212,-0.2208,-0.2204,0,-0.2373,-0.2401,-0.2433,-0.2472,-0.2506,-0.2558,-0.2614,-0.2649,-0.2768,-0.2817,-0.2862,-0.2873,-0.2834,-0.2661,-0.2574,-0.2492,-0.2509,-0.2415,-0.2759,-0.2305,-0.2281,-0.2264,-0.2283,-0.2165,-0.2169,-0.2171,-0.2174,-0.2175,-0.2285,-0.2284,-0.2313,-0.234,-0.2381,-0.2403,-0.2394,-0.2466,-0.251,-0.2529,-0.2651,-0.2589,-0.2576,-0.2337,-0.222,-0.212,-0.2289,-0.218,-0.2192,-0.2209,-0.2167,-0.2142,-0.1992,-0.1995,-0.1997,-0.2,-0.2002,0,-0.2151,-0.2161,-0.2174,-0.2195,-0.2172,-0.2252,-0.2288,-0.2235,-0.2225,-0.2275,-0.2282,-0.2066,-0.1979,-0.1964,-0.1759,-0.1735,-0.1697,-0.1661,-0.1606,-0.1646,-0.1681,-0.1612,-0.129,-0.1287,-0.1285,-0.1284,0,0,-0.2075,-0.2032,-0.2045,-0.1966,-0.1979,-0.1895,-0.1882,-0.1832,-0.1821,-0.1736,-0.1703,-0.1852,-0.1913,-0.16,-0.153,-0.1377,-0.149,-0.1307,-0.1877,-0.1851,-0.1884,-0.198,-0.1918,0,0,0,0,0]},{"header":{"parameterUnit":"m.s-1","parameterCategory":2,"la1":30.2991,"la2":30.254,"lo1":-89.0895,"lo2":-89.0444,"dy":0.0017,"dx":0.0017,"nx":28,"ny":28,"refTime":"2023-09-21T03:00:00:Z","depth":"2","parameterNumber":3,"parameterNumberName":"V-component_of_CURRENTS"},"data":[0,0,0,0,0,0,0,0,0,0,0,0,0,0,0,0,0,0,0,0,0,0,0,0,0,0,0,0,0,0,0,0,0,0,0,0,0,0,0,0,0,0,0,0,0,0,0,0,0,0,0,0,0,0,0,0,0,0,-0.0289,-0.0288,0,-0.0197,-0.0196,-0.0195,-0.0136,-0.0136,-0.0136,-0.0136,-0.0014,-0.0011,-0.0008,0,0,0,0,0,0,0,0,0,0,0,0,0,-0.0352,-0.0352,-0.0289,-0.0288,-0.0287,-0.0197,-0.0196,-0.0194,-0.0136,-0.0136,-0.0136,-0.0136,-0.0015,-0.0011,-0.0007,0,0,0,0,0,0,0,0,0,0,0,0,0,-0.0298,-0.0351,-0.0289,-0.0248,-0.0244,-0.0198,-0.0196,-0.0194,-0.0136,-0.0136,-0.0136,-0.0135,-0.0016,-0.0011,-0.0007,0.0015,0,0,0.0007,0.0009,0,0,0,0,0,0,0,0,-0.0301,-0.0295,-0.0255,-0.0251,-0.0246,-0.0179,-0.0173,-0.0123,-0.0136,-0.0176,-0.0136,-0.0135,-0.0067,-0.0058,-0.004,0.0021,0.0026,0.0008,0.001,0.0012,0.0014,0,0,0,0,0,0,0,-0.0305,-0.0299,-0.0251,-0.0254,-0.0249,-0.0213,-0.0206,-0.0163,-0.0123,-0.0172,-0.0168,-0.016,-0.0064,-0.0045,-0.0037,0.0028,0.0007,0.0012,0.0014,0.0016,0.0118,0.0118,0,0,0,0,0,0,-0.0323,-0.0303,-0.0254,-0.0249,-0.0275,-0.0213,-0.0204,-0.02,-0.0124,-0.0112,-0.0161,-0.0158,-0.0053,-0.0042,-0.0032,-0.0,0.0012,0.0017,0.0019,0.0118,0.0118,0.0118,0,0,0,0,0,0,-0.0325,-0.032,-0.0258,-0.0274,-0.0264,-0.0213,-0.0208,-0.0198,-0.0179,-0.0116,-0.0103,-0.0152,-0.0052,-0.0039,0.0005,0.0005,0.0019,0.0023,0.0118,0.0118,0.0118,0.0063,0,0,0,0,0,0,-0.0327,-0.0321,-0.0326,-0.0276,-0.0264,-0.024,-0.0208,-0.0197,-0.0176,-0.0171,-0.0104,-0.0093,-0.0051,-0.0002,0.001,0.0011,0.0026,0.0118,0.0118,0.0118,0.0065,0.0061,0.0058,0,0,0,0,0,-0.0329,-0.0341,-0.0327,-0.0321,-0.0272,-0.0241,-0.0232,-0.0192,-0.0176,-0.0173,-0.0124,-0.0095,0.0005,0.0002,0.0015,0.0018,0.0118,0.0118,0.0118,0.0066,0.0062,0.0058,0,0,0,0,0,0,-0.0372,-0.0335,-0.0318,-0.0318,-0.0286,-0.0232,-0.0228,-0.0199,-0.0157,-0.0153,-0.0091,-0.0075,-0.0039,-0.0003,-0.0009,0.0047,0.0065,0.0067,0.0021,0.0017,0.0014,0.0,0.003,0,0,0,0,0,-0.0385,-0.0384,-0.034,-0.0341,-0.0329,-0.0279,-0.0262,-0.0235,-0.0192,-0.0173,-0.0124,-0.0074,-0.0029,-0.0002,0.004,0.0074,0.0116,0.0084,0.008,0.0077,0.0075,0.0139,0.0141,0.0117,0.0117,0.0117,0,0,-0.0403,-0.0382,-0.0382,-0.035,-0.0323,-0.0314,-0.0268,-0.025,-0.0234,-0.0166,-0.0134,-0.0086,-0.0024,0.0013,0.0033,0.0044,0.0104,0.0077,0.0073,0.0074,0.0139,0.0141,0.0144,0.0117,0.0117,0.0117,0,0,-0.0443,-0.042,-0.0435,-0.041,-0.0376,-0.0345,-0.0344,-0.0292,-0.0261,-0.0224,-0.0171,-0.0122,-0.0058,-0.0007,0.0026,0.0029,0.008,0.0036,0.0015,0.0077,0.008,0.0082,0.0133,0.0141,0.0039,0.0039,0.0039,0,-0.0469,-0.0476,-0.0434,-0.0437,-0.0422,-0.0365,-0.0372,-0.0332,-0.0271,-0.0241,-0.0226,-0.0115,-0.0066,-0.0003,-0.0003,0.0021,0.006,0.0025,0.0072,0.0076,0.008,0.0131,0.0141,0.0036,0.0037,0.0037,0.0037,0,-0.0515,-0.0517,-0.0524,-0.0509,-0.0486,-0.0483,-0.0425,-0.0396,-0.0354,-0.0306,-0.0238,-0.0162,-0.0095,-0.0072,-0.0035,0.0017,0.0036,0.0056,0.0081,0.0079,0.0133,0.0144,0.0033,0.0033,0.0034,0.0035,0,0,-0.0579,-0.0564,-0.0564,-0.0569,-0.0522,-0.0512,-0.048,-0.0432,-0.0407,-0.0336,-0.029,-0.0205,-0.0156,-0.0116,-0.0056,0.0002,0.006,0.0033,0.0038,0.008,0.019,0.0235,0.0251,0.0088,0.009,0.0091,0.0216,0,-0.0631,-0.0664,-0.0629,-0.0648,-0.066,-0.0588,-0.0565,-0.0506,-0.0442,-0.0383,-0.028,-0.0223,-0.0173,-0.0141,-0.0074,0.0031,0.0086,0.0024,0.019,0.0195,0.0232,0.0264,0.0215,0.0324,0.0226,0.0228,0.023,0,-0.0684,-0.0701,-0.0736,-0.072,-0.0716,-0.0711,-0.0655,-0.0624,-0.0517,-0.0462,-0.0372,-0.0289,-0.0182,-0.015,0.003,-0.0012,0.0077,0.0156,0.0163,0.0232,0.026,0.0313,0.0348,0.0248,0.0247,0.0245,0.0244,0,-0.0757,-0.0768,-0.0804,-0.0797,-0.0771,-0.0762,-0.0742,-0.0653,-0.062,-0.0509,-0.0467,-0.0326,-0.025,-0.0117,0.0058,0.0043,0.0255,0.0257,0.0381,0.0385,0.039,0.0392,0.0371,0.0371,0.0371,0.037,0.037,0,-0.0823,-0.0847,-0.0845,-0.0862,-0.0898,-0.084,-0.0839,-0.0789,-0.0703,-0.0664,-0.0522,-0.0447,-0.0239,-0.0085,0.0054,0.0265,0.0258,0.0389,0.0428,0.0369,0.0368,0.0337,0.0331,0.0375,0.0374,0.0373,0.0372,0,-0.0894,-0.0892,-0.0936,-0.0934,-0.0937,-0.0961,-0.0927,-0.0913,-0.0822,-0.0761,-0.0729,-0.0526,-0.0312,-0.0096,0.0144,0.0265,0.0454,0.0522,0.0439,0.0466,0.0537,0.0527,0.0669,0.0672,0.0674,0.0676,0.0678,0,-0.0934,-0.0966,-0.1005,-0.104,-0.1044,-0.1061,-0.1068,-0.0993,-0.0962,-0.0804,-0.0776,-0.0552,-0.0373,0.0013,0.0269,0.054,0.0531,0.0636,0.0603,0.0547,0.0571,0.0557,0.0544,0.0584,0.0585,0.0586,0.0586,0,-0.1008,-0.1021,-0.106,-0.1139,-0.1171,-0.1196,-0.119,-0.118,-0.1071,-0.0987,-0.0825,-0.0668,-0.0278,0.0041,0.0399,0.0539,0.0593,0.0658,0.0643,0.0516,0.0478,0.0497,0.0486,0.0592,0.0591,0.0591,0.059,0.059,-0.1057,-0.1112,-0.1165,-0.1235,-0.1279,-0.1309,-0.1318,-0.1273,-0.1215,-0.106,-0.0886,-0.0624,-0.0294,0.0219,0.0471,0.0689,0.0685,0.0723,0.0716,0.071,0.0678,0.0646,0.0785,0.0785,0.0786,0.0786,0.0786,0,-0.1114,-0.1175,-0.1252,-0.133,-0.1385,-0.1384,-0.1379,-0.1343,-0.127,-0.109,-0.0897,-0.0525,-0.0149,0.018,0.0538,0.0762,0.0719,0.0779,0.0683,0.0677,0.0671,0.0632,0.073,0.0731,0.0731,0.0732,0,0,-0.1146,-0.1237,-0.1282,-0.1397,-0.1447,-0.1485,-0.1479,-0.1397,-0.126,-0.1067,-0.0866,-0.0564,-0.0145,0.01,0.0388,0.0569,0.0552,0.057,0.0591,0.0437,0.0428,0.0617,0.0549,0,0,0,0,0]}],[{"header":{"parameterUnit":"m.s-1","parameterCategory":2,"la1":30.2991,"la2":30.254,"lo1":-89.0895,"lo2":-89.0444,"dy":0.0017,"dx":0.0017,"nx":28,"ny":28,"refTime":"2023-09-21T03:00:00:Z","depth":"4","parameterNumber":2,"parameterNumberName":"U-component_of_CURRENTS"},"data":[0,0,0,0,0,0,0,0,0,0,0,0,0,0,0,0,0,0,0,0,0,0,0,0,0,0,0,0,0,0,0,0,0,0,0,0,0,0,0,0,0,0,0,0,0,0,0,0,0,0,0,0,0,0,0,0,0,0,-0.18,-0.1801,0,-0.1862,-0.1863,-0.1863,-0.1903,-0.1904,-0.1904,-0.1905,-0.1951,-0.1952,-0.1953,0,0,0,0,0,0,0,0,0,0,0,0,0,-0.1698,-0.17,-0.18,-0.1801,-0.1802,-0.1862,-0.1863,-0.1863,-0.1903,-0.1904,-0.1905,-0.1905,-0.1951,-0.1952,-0.1953,0,0,0,0,0,0,0,0,0,0,0,0,0,-0.1747,-0.17,-0.18,-0.1831,-0.1835,-0.1862,-0.1863,-0.1863,-0.1903,-0.1904,-0.1905,-0.1905,-0.1951,-0.1952,-0.1953,-0.1944,0,0,-0.1956,-0.1957,0,0,0,0,0,0,0,0,-0.1744,-0.175,-0.1826,-0.1829,-0.1833,-0.1878,-0.1844,-0.1891,-0.1903,-0.1874,-0.1905,-0.1906,-0.1927,-0.193,-0.1936,-0.1946,-0.1948,-0.1956,-0.1957,-0.1958,-0.1958,0,0,0,0,0,0,0,-0.1741,-0.1748,-0.1821,-0.1827,-0.1831,-0.1837,-0.1844,-0.1853,-0.1893,-0.1877,-0.188,-0.1892,-0.1928,-0.1935,-0.1937,-0.1949,-0.1956,-0.1957,-0.1958,-0.1959,-0.2053,-0.2055,0,0,0,0,0,0,-0.1739,-0.1745,-0.182,-0.1824,-0.1793,-0.1838,-0.1847,-0.1861,-0.1893,-0.19,-0.1891,-0.1894,-0.1932,-0.1936,-0.1939,-0.2022,-0.1958,-0.1959,-0.1959,-0.2051,-0.2054,-0.2056,0,0,0,0,0,0,-0.1737,-0.1745,-0.1817,-0.1788,-0.1798,-0.184,-0.1855,-0.1862,-0.1902,-0.1905,-0.1911,-0.1929,-0.1933,-0.1937,-0.1983,-0.202,-0.1959,-0.196,-0.2049,-0.2052,-0.2055,-0.2129,0,0,0,0,0,0,-0.1734,-0.1744,-0.1768,-0.1788,-0.1799,-0.186,-0.1855,-0.1862,-0.1907,-0.1912,-0.1938,-0.1942,-0.1934,-0.1981,-0.1984,-0.2021,-0.1961,-0.2047,-0.2051,-0.2054,-0.2124,-0.2134,-0.2142,0,0,0,0,0,-0.173,-0.1756,-0.1769,-0.1779,-0.1826,-0.1862,-0.1869,-0.1898,-0.1909,-0.1935,-0.1957,-0.1943,-0.2005,-0.1984,-0.1986,-0.2024,-0.2045,-0.205,-0.2054,-0.212,-0.2132,-0.2142,0,0,0,0,0,0,-0.1726,-0.1763,-0.1778,-0.1816,-0.185,-0.187,-0.1901,-0.1917,-0.1954,-0.1967,-0.1965,-0.197,-0.2023,-0.2015,-0.1992,-0.2063,-0.2023,-0.2028,-0.2073,-0.2084,-0.2093,-0.2084,-0.1962,0,0,0,0,0,-0.1736,-0.1766,-0.18,-0.1833,-0.1853,-0.1883,-0.1907,-0.1929,-0.1956,-0.1975,-0.1995,-0.2015,-0.2036,-0.2055,-0.2068,-0.2107,-0.2083,-0.2135,-0.2144,-0.2151,-0.2147,-0.2144,-0.2152,-0.2069,-0.2069,-0.2069,0,0,-0.1743,-0.1769,-0.1788,-0.1836,-0.1863,-0.1902,-0.19,-0.1948,-0.1987,-0.1973,-0.2039,-0.2049,-0.2053,-0.2099,-0.2122,-0.2102,-0.2165,-0.2156,-0.2163,-0.2154,-0.2149,-0.2157,-0.2164,-0.2072,-0.2072,-0.2071,0,0,-0.1764,-0.1799,-0.183,-0.1865,-0.1919,-0.1937,-0.1959,-0.2003,-0.2035,-0.209,-0.2091,-0.2125,-0.2163,-0.2171,-0.2178,-0.2244,-0.2212,-0.2259,-0.23,-0.2299,-0.2305,-0.231,-0.2297,-0.2301,-0.2265,-0.2265,-0.2266,0,-0.1774,-0.1815,-0.1846,-0.1888,-0.1921,-0.1958,-0.1999,-0.2036,-0.2093,-0.2118,-0.2126,-0.2185,-0.2193,-0.2233,-0.2261,-0.2264,-0.2254,-0.2258,-0.2309,-0.2313,-0.2317,-0.2303,-0.2306,-0.2269,-0.2269,-0.2269,-0.2268,0,-0.181,-0.1858,-0.1881,-0.1943,-0.1984,-0.2028,-0.208,-0.213,-0.2169,-0.2197,-0.226,-0.2273,-0.2301,-0.2319,-0.2312,-0.2353,-0.2335,-0.2318,-0.2277,-0.233,-0.2312,-0.2313,-0.2275,-0.2274,-0.2273,-0.2272,0,0,-0.1783,-0.1885,-0.1896,-0.1936,-0.2018,-0.205,-0.2125,-0.2186,-0.2233,-0.229,-0.2337,-0.2382,-0.2388,-0.2395,-0.2396,-0.2402,-0.2428,-0.2381,-0.2379,-0.2361,-0.2422,-0.2273,-0.2259,-0.2423,-0.2424,-0.2424,-0.24,0,-0.1799,-0.1878,-0.1929,-0.2008,-0.2048,-0.2114,-0.2177,-0.2243,-0.2295,-0.2353,-0.2379,-0.2424,-0.2418,-0.2438,-0.2447,-0.2433,-0.2434,-0.2435,-0.2379,-0.2377,-0.2231,-0.2257,-0.2426,-0.2401,-0.2401,-0.2401,-0.2402,0,-0.1803,-0.1859,-0.1937,-0.2038,-0.2063,-0.2123,-0.2218,-0.228,-0.2365,-0.2406,-0.2453,-0.2473,-0.2507,-0.2487,-0.2486,-0.2491,-0.2463,-0.2445,-0.2443,-0.2273,-0.223,-0.2336,-0.2403,-0.2403,-0.2403,-0.2403,-0.2403,0,-0.1743,-0.1856,-0.1917,-0.1955,-0.2079,-0.2133,-0.2198,-0.2295,-0.2345,-0.2436,-0.2472,-0.2516,-0.2535,-0.2523,-0.2493,-0.2497,-0.2469,-0.2464,-0.2302,-0.2292,-0.2401,-0.2395,-0.2449,-0.2449,-0.245,-0.245,-0.245,0,-0.1714,-0.1768,-0.1903,-0.1938,-0.2017,-0.2113,-0.2198,-0.2271,-0.2366,-0.2404,-0.249,-0.2504,-0.2545,-0.2535,-0.2505,-0.2396,-0.2475,-0.2301,-0.2271,-0.2435,-0.2434,-0.2402,-0.2397,-0.2449,-0.2449,-0.2449,-0.2449,0,-0.163,-0.1723,-0.1802,-0.1943,-0.1992,-0.2047,-0.2188,-0.223,-0.2345,-0.2393,-0.2421,-0.2501,-0.2482,-0.2494,-0.2464,-0.2384,-0.2313,-0.2253,-0.2425,-0.2407,-0.2139,-0.2138,-0.2072,-0.2067,-0.2062,-0.2058,-0.2055,0,-0.1591,-0.1624,-0.1781,-0.1823,-0.1893,-0.1995,-0.205,-0.2195,-0.2224,-0.2355,-0.2341,-0.2392,-0.2417,-0.2254,-0.2292,-0.2219,-0.219,-0.2146,-0.2144,-0.212,-0.2099,-0.2105,-0.2111,-0.2047,-0.2046,-0.2045,-0.2043,0,-0.1502,-0.1572,-0.1632,-0.1718,-0.1792,-0.1866,-0.1952,-0.1969,-0.2103,-0.2233,-0.22,-0.2189,-0.2164,-0.2136,-0.2093,-0.2043,-0.2173,-0.2096,-0.2106,-0.2104,-0.2089,-0.2074,-0.2085,-0.2027,-0.2029,-0.2031,-0.2032,0,-0.1424,-0.1441,-0.152,-0.158,-0.1667,-0.1689,-0.1772,-0.1798,-0.1859,-0.2006,-0.1983,-0.2044,-0.2128,-0.2042,-0.1999,-0.1942,-0.1916,-0.1852,-0.1874,-0.1893,-0.1845,-0.18,-0.1613,0,0,0,0,0,-0.1329,-0.1326,-0.1368,-0.1424,-0.1502,-0.1548,-0.167,-0.175,-0.1893,-0.1811,-0.1895,-0.1864,-0.1823,-0.1858,-0.1758,-0.1915,-0.1921,-0.1792,-0.186,-0.1936,-0.1955,-0.1914,0,0,0,0,0,0,-0.1261,-0.1292,-0.131,-0.1272,-0.1275,-0.1339,-0.1411,-0.1515,-0.1485,-0.1638,-0.1619,-0.1736,-0.1716,-0.1833,-0.1709,-0.1719,-0.1721,-0.1842,-0.1837,-0.1926,-0.1943,-0.1958,-0.1923,0,0,0,0,0]},{"header":{"parameterUnit":"m.s-1","parameterCategory":2,"la1":30.2991,"la2":30.254,"lo1":-89.0895,"lo2":-89.0444,"dy":0.0017,"dx":0.0017,"nx":28,"ny":28,"refTime":"2023-09-21T03:00:00:Z","depth":"4","parameterNumber":3,"parameterNumberName":"V-component_of_CURRENTS"},"data":[0,0,0,0,0,0,0,0,0,0,0,0,0,0,0,0,0,0,0,0,0,0,0,0,0,0,0,0,0,0,0,0,0,0,0,0,0,0,0,0,0,0,0,0,0,0,0,0,0,0,0,0,0,0,0,0,0,0,-0.0215,-0.0215,0,-0.0155,-0.0154,-0.0153,-0.0114,-0.0114,-0.0114,-0.0114,-0.002,-0.0018,-0.0015,0,0,0,0,0,0,0,0,0,0,0,0,0,-0.025,-0.025,-0.0216,-0.0215,-0.0214,-0.0155,-0.0154,-0.0153,-0.0114,-0.0114,-0.0114,-0.0114,-0.0021,-0.0018,-0.0015,0,0,0,0,0,0,0,0,0,0,0,0,0,-0.0215,-0.025,-0.0216,-0.0189,-0.0186,-0.0155,-0.0154,-0.0153,-0.0114,-0.0114,-0.0114,-0.0114,-0.0022,-0.0018,-0.0014,0.0005,0,0,-0.0003,-0.0002,0,0,0,0,0,0,0,0,-0.0218,-0.0214,-0.0193,-0.0191,-0.0187,-0.0143,-0.0132,-0.0099,-0.0114,-0.014,-0.0114,-0.0114,-0.0059,-0.0052,-0.004,0.001,0.0014,-0.0003,-0.0001,0.0001,0.0002,0,0,0,0,0,0,0,-0.022,-0.0216,-0.019,-0.0193,-0.0189,-0.0164,-0.0159,-0.0125,-0.0099,-0.0138,-0.0135,-0.0131,-0.0057,-0.0043,-0.0037,0.0015,-0.0003,0.0,0.0002,0.0004,0.0086,0.0086,0,0,0,0,0,0,-0.0233,-0.0219,-0.0192,-0.0188,-0.0204,-0.0164,-0.0158,-0.0156,-0.01,-0.0092,-0.0131,-0.0129,-0.0049,-0.0041,-0.0034,-0.0007,0.0001,0.0004,0.0006,0.0086,0.0086,0.0086,0,0,0,0,0,0,-0.0234,-0.0232,-0.0194,-0.0203,-0.0197,-0.0164,-0.0162,-0.0155,-0.0144,-0.0096,-0.0087,-0.0127,-0.0049,-0.0039,-0.0004,-0.0003,0.0006,0.0009,0.0086,0.0086,0.0086,0.0046,0,0,0,0,0,0,-0.0236,-0.0232,-0.0238,-0.0204,-0.0197,-0.0184,-0.0162,-0.0154,-0.0142,-0.0139,-0.0089,-0.008,-0.0048,-0.001,-0.0001,0.0002,0.0012,0.0086,0.0086,0.0086,0.0048,0.0045,0.0043,0,0,0,0,0,-0.0237,-0.0247,-0.0239,-0.0236,-0.0205,-0.0185,-0.0179,-0.0153,-0.0142,-0.0141,-0.0104,-0.0082,-0.0004,-0.0007,0.0004,0.0008,0.0086,0.0086,0.0086,0.0049,0.0045,0.0043,0,0,0,0,0,0,-0.0265,-0.0243,-0.0234,-0.0237,-0.0216,-0.0179,-0.0178,-0.0158,-0.0128,-0.0126,-0.0078,-0.0066,-0.0038,-0.001,-0.0015,0.0031,0.0043,0.0045,0.0011,0.0009,0.0006,-0.0006,0.0015,0,0,0,0,0,-0.0275,-0.0278,-0.0249,-0.0253,-0.0246,-0.0213,-0.0203,-0.0185,-0.0153,-0.014,-0.0104,-0.0065,-0.0029,-0.0007,0.0025,0.0053,0.0085,0.0062,0.0059,0.0057,0.0054,0.0109,0.0111,0.0086,0.0086,0.0086,0,0,-0.0288,-0.0276,-0.0278,-0.026,-0.0243,-0.0238,-0.0206,-0.0196,-0.0186,-0.0134,-0.0112,-0.0074,-0.0024,0.0006,0.0021,0.003,0.0079,0.0057,0.0054,0.0053,0.0109,0.0112,0.0114,0.0085,0.0085,0.0085,0,0,-0.0317,-0.0305,-0.0319,-0.0303,-0.0283,-0.0262,-0.0263,-0.0228,-0.0207,-0.018,-0.0139,-0.0099,-0.0051,-0.0008,0.0018,0.0023,0.0062,0.0028,0.0013,0.0065,0.0068,0.0071,0.0108,0.0114,0.0031,0.0031,0.0031,0,-0.0336,-0.0345,-0.0319,-0.0323,-0.0316,-0.0278,-0.0286,-0.0257,-0.0214,-0.0194,-0.0182,-0.0096,-0.0055,-0.0003,-0.0002,0.0018,0.0047,0.0019,0.0062,0.0066,0.0069,0.0107,0.0114,0.0029,0.0029,0.0029,0.003,0,-0.0369,-0.0377,-0.0382,-0.0377,-0.0364,-0.0365,-0.0325,-0.0307,-0.0279,-0.0244,-0.0192,-0.013,-0.0078,-0.0057,-0.0027,0.0019,0.0031,0.005,0.0069,0.007,0.0109,0.0117,0.0026,0.0027,0.0027,0.0028,0,0,-0.041,-0.041,-0.0412,-0.0422,-0.0393,-0.039,-0.0368,-0.0337,-0.0323,-0.0268,-0.0237,-0.0163,-0.0126,-0.0093,-0.0043,0.0008,0.0058,0.0034,0.0038,0.0068,0.0165,0.0147,0.0155,0.0085,0.0087,0.0088,0.018,0,-0.0447,-0.0479,-0.0459,-0.0483,-0.0496,-0.045,-0.0437,-0.0398,-0.0352,-0.0312,-0.0228,-0.0185,-0.0139,-0.0115,-0.0055,0.0032,0.008,0.0031,0.0162,0.0166,0.0148,0.0164,0.0092,0.0186,0.0188,0.019,0.0191,0,-0.0482,-0.0502,-0.0539,-0.0543,-0.0543,-0.0548,-0.0519,-0.05,-0.0423,-0.0383,-0.0312,-0.0246,-0.0155,-0.0125,0.0028,-0.0006,0.0069,0.0137,0.0143,0.0145,0.0164,0.0188,0.0207,0.0206,0.0204,0.0203,0.0202,0,-0.0529,-0.0553,-0.059,-0.059,-0.0588,-0.0592,-0.0586,-0.0527,-0.0509,-0.0428,-0.04,-0.0282,-0.0223,-0.0105,0.0041,0.0034,0.0206,0.0215,0.0271,0.027,0.0276,0.0272,0.0313,0.0313,0.0313,0.0312,0.0312,0,-0.0569,-0.0598,-0.0623,-0.0642,-0.0688,-0.0655,-0.0672,-0.0641,-0.0586,-0.0563,-0.0449,-0.0396,-0.0216,-0.0091,0.0032,0.0181,0.0203,0.027,0.0296,0.0256,0.0249,0.0282,0.0277,0.0316,0.0315,0.0314,0.0314,0,-0.0606,-0.0622,-0.0673,-0.0699,-0.0715,-0.0746,-0.075,-0.0748,-0.0689,-0.0652,-0.0629,-0.0474,-0.0309,-0.0126,0.0078,0.0161,0.031,0.0353,0.0292,0.0313,0.0337,0.0329,0.0416,0.0416,0.0416,0.0416,0.0417,0,-0.0626,-0.0658,-0.0729,-0.0771,-0.0791,-0.0829,-0.085,-0.0813,-0.0798,-0.0696,-0.0677,-0.0513,-0.0394,-0.011,0.0069,0.0305,0.0332,0.0393,0.0368,0.0332,0.0349,0.0341,0.0333,0.0417,0.0417,0.0417,0.0417,0,-0.0664,-0.0695,-0.074,-0.0834,-0.0884,-0.0928,-0.0949,-0.0943,-0.0878,-0.0833,-0.0698,-0.0533,-0.0346,-0.0119,0.007,0.0235,0.0348,0.0396,0.0396,0.0373,0.0334,0.0349,0.0341,0.0418,0.0418,0.0418,0.0417,0,-0.069,-0.0739,-0.0807,-0.0881,-0.0956,-0.0996,-0.1002,-0.0962,-0.0935,-0.0807,-0.0767,-0.0543,-0.0408,-0.0155,0.0018,0.0184,0.0212,0.0242,0.0251,0.0252,0.0176,0.0102,0.0139,0,0,0,0,0,-0.0706,-0.0764,-0.0844,-0.0925,-0.0996,-0.1032,-0.1049,-0.103,-0.097,-0.0885,-0.0817,-0.0634,-0.035,-0.022,-0.0057,-0.0001,0.0223,0.0189,0.0256,0.0421,0.042,0.0357,0,0,0,0,0,0,-0.0721,-0.0801,-0.0845,-0.0938,-0.0994,-0.106,-0.1072,-0.1033,-0.0966,-0.0883,-0.0724,-0.0624,-0.0342,-0.0441,-0.0062,-0.0011,0.0044,0.0332,0.0335,0.0422,0.0421,0.042,0.0355,0,0,0,0,0]}]]